Probability
0 1 2 3 3 4 6 10 14 18 25 39 52 63 68 72 74 64 45 28 18 10 5 2 1 1 1 1 2 3 1 0 0 1 6 13 16 11 5 1 0 0 0
0 1 2 2 1 2 3 5 7 9 13 23 36 49 57 63 68 61 46 32 22 13 7 3 2 1 0 1 1 2 1 0 0 2 6 12 13 8 3 0 0 0 0
0 0 1 1 0 0 1 1 1 1 2 7 16 27 39 50 55 51 44 37 28 17 9 4 2 1 0 0 1 1 2 1 0 2 5 7 6 3 1 0 0 0 0
0 0 1 2 1 0 0 0 0 0 0 1 5 11 22 34 39 36 33 34 30 19 8 3 1 0 0 0 0 1 1 1 1 1 2 2 1 0 0 0 0 0 0
2 1 1 3 2 1 1 0 0 0 0 0 1 3 9 17 21 19 19 24 25 15 5 2 1 0 0 0 0 0 0 0 1 0 0 0 0 0 0 0 0 0 0
6 3 2 4 4 2 1 0 0 0 0 0 0 0 2 5 6 6 8 14 16 10 3 1 0 0 0 0 0 0 0 0 0 0 0 0 0 0 0 0 0 0 0
8 6 4 4 3 1 1 0 1 1 0 0 0 0 0 0 0 0 2 6 9 6 1 0 0 0 0 0 0 0 0 0 0 0 0 0 0 0 0 0 0 0 0
5 5 4 3 2 2 2 2 3 2 1 0 0 0 0 0 0 0 0 2 4 2 0 0 0 0 0 0 0 0 0 0 0 0 0 0 0 0 0 0 0 0 0
2 2 2 2 2 3 3 4 4 3 1 0 0 0 0 0 0 0 0 0 1 0 0 0 0 0 0 0 0 0 0 0 0 0 0 0 0 0 0 0 0 0 0
1 1 1 2 2 2 2 2 2 2 1 0 0 0 0 0 0 0 0 0 0 0 0 0 0 0 0 0 0 0 0 0 0 0 0 0 0 0 0 0 0 0 0
0 0 1 1 1 0 0 0 0 0 0 0 0 0 0 0 0 0 0 0 0 0 0 0 0 0 0 0 0 0 0 0 0 0 0 0 0 0 0 0 0 0 0
0 0 0 0 0 0 0 0 0 0 0 0 0 0 0 0 0 0 0 0 0 0 0 0 0 0 0 0 0 0 0 0 0 0 0 0 0 0 0 0 0 0 0
0 0 0 0 0 0 0 0 0 0 0 0 0 0 0 0 0 0 0 0 0 0 0 0 0 0 0 0 0 0 0 0 0 0 0 0 0 0 0 0 0 0 0
0 0 0 0 0 0 0 0 0 0 0 0 0 0 0 0 0 0 0 0 0 0 0 0 0 0 0 0 0 0 0 0 0 0 0 0 0 0 0 0 0 0 0
0 0 0 0 0 0 0 0 0 0 0 0 0 0 0 0 0 0 0 0 0 0 0 0 0 0 0 0 0 0 0 0 0 0 0 0 0 0 0 0 0 0 0
0 0 0 0 0 0 0 0 0 0 0 0 0 0 0 0 0 0 0 0 0 0 0 0 0 0 0 0 0 0 0 0 0 0 0 0 0 0 0 0 0 0 0
0 0 0 0 0 0 0 0 0 0 0 0 0 0 0 0 0 0 0 0 0 0 0 0 0 0 0 0 0 0 0 0 0 0 0 0 0 0 0 0 0 0 0
0 0 0 0 0 0 0 0 0 0 0 0 0 0 0 0 0 0 0 0 0 0 0 0 0 0 0 0 0 0 0 0 0 0 0 0 0 0 0 0 0 0 0
0 0 0 0 0 0 0 0 0 0 0 0 0 0 0 0 0 0 0 0 0 0 0 0 0 0 0 0 0 0 0 0 0 0 0 0 0 0 0 0 0 0 0
0 0 0 0 0 0 0 0 0 0 0 0 0 0 0 0 0 0 0 0 0 0 0 0 0 0 0 0 0 0 0 0 0 0 0 0 0 0 0 0 0 0 0
0 0 0 0 0 0 0 0 0 0 0 0 0 0 0 0 0 0 0 0 0 0 0 0 0 0 0 0 0 0 0 0 0 0 0 0 0 0 0 0 0 0 0
0 0 0 0 0 0 0 0 0 0 0 0 0 0 0 0 0 0 0 0 0 0 0 0 0 0 0 0 0 0 0 0 0 0 0 0 0 0 0 0 0 0 0
0 0 0 0 0 0 0 0 0 0 0 0 0 0 0 0 0 0 0 0 0 0 0 0 0 0 0 0 0 0 0 0 0 0 0 0 0 0 0 0 0 0 0
0 0 0 0 0 0 0 0 0 0 0 0 0 0 0 0 0 0 0 0 0 0 0 0 0 0 0 0 0 0 0 0 0 0 0 0 0 0 0 0 0 0 0
0 0 0 0 0 0 0 0 0 0 0 0 0 0 0 0 0 0 0 0 0 0 0 0 0 0 0 0 0 0 0 0 0 0 0 0 0 0 0 0 0 0 0
0 0 0 0 0 0 0 0 0 0 0 0 0 0 0 0 0 0 0 0 0 0 0 0 0 0 0 0 0 0 0 0 0 0 0 0 0 0 0 0 0 0 0
Wind_Speed
5 5 5 5 6 6 6 6 6 6 7 7 8 8 8 8 7 6 7 6 6 5 5 5 6 7 5 5 5 5 5 5 4 1 1 3 5 8 8 8 8 8 9
7 6 6 6 7 7 8 7 7 8 8 8 8 8 9 9 7 7 7 6 5 5 4 5 6 6 6 5 4 4 3 3 5 6 3 3 5 7 8 9 8 8 8
8 8 8 8 8 8 9 8 8 9 9 9 8 9 9 9 9 8 7 6 5 3 2 3 5 5 5 4 4 2 1 2 4 6 5 4 4 6 8 9 10 8 8
9 8 8 9 9 10 9 9 9 9 9 9 9 9 9 10 10 9 8 6 4 2 1 1 2 3 3 3 2 1 1 4 6 7 7 5 5 6 7 7 7 5 6
8 9 9 9 9 9 9 10 10 11 12 9 9 8 8 9 10 9 7 7 5 4 3 2 2 3 4 3 2 2 3 5 6 7 7 6 6 6 5 5 7 6 6
9 9 9 8 8 8 8 9 10 10 9 8 8 8 8 10 9 8 7 6 5 6 5 4 4 3 4 6 8 9 7 6 7 6 6 6 6 6 5 6 7 6 5
8 9 9 9 9 9 11 10 8 8 8 7 7 8 8 8 8 8 10 6 6 7 7 6 5 5 4 4 7 10 11 11 8 6 7 6 6 5 6 6 5 4 5
9 9 9 9 9 8 9 8 7 7 7 7 7 8 7 8 7 7 9 8 6 8 8 7 6 6 5 5 6 8 8 7 7 6 7 6 6 5 5 6 6 6 5
11 10 9 9 10 9 9 8 7 6 7 8 9 8 7 5 5 6 7 6 6 8 9 9 8 7 7 8 8 8 9 8 11 13 12 10 10 8 5 4 4 5 5
12 11 10 10 11 11 10 9 8 7 7 9 9 8 7 5 3 5 7 5 6 7 8 9 10 10 10 9 8 8 8 7 8 9 8 7 6 7 6 3 2 4 5
12 12 11 10 10 11 11 9 9 8 9 9 9 7 6 5 3 4 5 4 5 7 9 9 8 13 11 9 8 7 9 8 7 7 5 4 4 5 6 5 4 4 5
12 13 13 11 12 13 9 8 8 8 8 8 8 8 5 4 4 4 5 5 5 3 7 8 10 15 12 9 7 10 12 9 5 5 5 4 5 6 6 6 7 8 8
14 15 14 14 12 11 11 10 9 8 7 8 7 6 4 3 3 4 3 2 4 3 3 10 15 16 12 8 10 11 8 4 4 5 5 6 6 6 5 5 6 7 8
15 14 13 12 12 11 9 8 8 8 7 6 6 5 3 3 3 3 3 2 2 2 4 13 17 15 9 9 9 6 4 3 4 6 7 7 5 4 4 4 4 5 5
15 14 13 12 11 10 9 8 9 7 6 6 4 4 3 3 3 5 5 3 2 3 7 9 9 8 7 7 6 4 4 3 5 7 7 6 5 4 4 4 4 4 5
13 13 10 9 8 8 8 8 10 9 8 7 5 3 3 6 6 6 7 4 2 6 8 10 10 9 8 8 7 6 4 4 5 6 6 5 4 4 4 4 4 5 5
13 12 9 8 8 7 7 6 5 5 6 7 7 8 7 8 7 7 6 4 4 7 6 8 9 8 7 8 7 6 5 5 5 6 5 4 4 5 4 3 3 4 4
12 11 9 7 7 6 6 6 5 5 6 5 6 8 9 8 7 7 6 6 4 6 6 7 8 7 7 7 7 6 6 6 5 5 5 5 5 4 4 4 4 4 4
8 6 5 5 5 5 5 5 4 5 5 5 6 6 7 7 7 7 8 5 7 8 6 6 7 7 7 7 6 6 7 6 5 5 5 5 4 4 4 4 4 5 4
5 5 4 3 3 4 4 4 4 4 4 5 5 7 7 7 6 6 6 5 6 6 5 6 6 7 6 6 7 7 8 6 6 5 5 4 4 4 4 5 5 4 3
4 2 3 3 2 2 3 3 3 4 4 4 5 8 12 9 9 10 8 7 6 6 4 4 5 7 7 7 7 8 9 6 5 5 6 4 4 4 5 5 5 4 4
4 3 1 1 1 2 2 3 3 4 4 5 6 9 12 9 10 10 9 8 6 4 4 4 5 6 7 7 7 7 8 7 6 6 6 5 4 4 5 5 5 4 4
4 4 3 2 2 2 2 2 2 3 4 6 8 9 8 8 10 9 9 7 5 3 3 4 4 6 7 6 7 7 8 7 6 6 6 5 4 4 4 4 5 5 5
4 4 2 1 1 1 1 2 2 3 5 7 8 9 8 8 9 9 7 5 4 3 3 4 4 8 10 7 6 7 7 7 7 7 8 6 5 4 4 4 4 5 4
3 2 2 1 1 1 1 2 3 5 6 7 8 9 9 8 8 7 6 5 5 4 5 4 4 7 10 9 7 7 10 11 8 7 6 5 6 5 5 6 4 4 4
3 2 2 1 1 1 2 3 4 6 6 8 8 8 8 8 8 8 7 5 5 4 4 4 5 9 10 7 9 12 12 11 10 7 5 4 4 4 5 4 6 5 5
Wind_Direction
318 317 315 311 315 314 307 309 316 315 313 308 303 295 286 276 266 260 262 269 276 283 294 304 306 303 297 286 273 260 246 222 210 179 120 106 101 105 101 101 99 93 91
300 296 291 292 294 292 292 299 301 300 299 298 299 295 285 278 273 265 261 266 273 287 302 313 315 314 313 306 293 276 250 205 170 155 134 112 108 112 111 106 100 97 95
277 276 276 277 277 276 277 278 279 281 283 287 289 290 287 282 277 268 257 252 256 271 300 315 316 321 321 320 312 298 267 159 144 137 130 118 108 110 109 104 104 103 100
264 262 262 262 263 264 265 266 268 269 273 274 276 280 283 281 274 267 256 244 232 215 208 290 325 337 339 335 335 354 114 120 122 127 127 122 115 110 112 117 114 112 112
271 267 265 262 260 259 259 260 261 260 264 265 271 279 286 282 271 266 250 238 209 184 169 145 86 58 38 25 51 75 108 116 121 124 126 125 125 129 126 126 124 122 114
268 269 269 267 268 267 266 264 261 260 262 265 270 279 287 291 302 293 261 238 195 177 167 151 136 107 83 71 71 74 86 113 122 123 124 131 132 134 135 140 137 137 131
279 277 276 273 273 271 275 277 276 280 282 281 283 284 284 291 281 264 253 236 193 177 166 163 155 134 128 108 91 81 73 73 91 116 123 127 128 138 139 134 137 133 123
279 278 276 274 274 272 272 273 274 277 281 282 277 276 279 292 279 253 250 244 201 174 165 163 151 146 145 136 114 97 84 74 89 96 100 103 104 107 113 124 124 111 106
284 280 279 277 277 273 272 272 273 271 273 272 271 265 268 282 281 253 243 240 201 174 163 156 151 147 145 135 120 110 102 92 83 91 96 99 100 101 110 122 131 128 129
286 284 283 278 277 275 274 273 272 267 266 268 267 262 258 260 272 241 231 243 205 172 156 151 152 144 142 136 129 123 115 113 112 105 99 104 105 96 88 102 140 140 130
291 292 289 284 280 274 268 264 263 264 265 263 266 266 258 248 234 214 221 247 225 173 160 156 153 149 144 135 134 128 130 127 122 120 116 112 98 80 66 55 55 105 112
294 290 285 279 276 276 268 265 263 260 261 259 258 259 248 226 214 196 211 240 266 204 166 157 151 152 147 141 134 140 146 144 137 134 129 120 100 86 77 72 70 76 85
290 284 280 276 269 266 264 263 261 256 252 252 251 248 230 204 186 168 164 235 246 240 191 152 147 150 146 143 146 152 159 160 149 141 127 111 104 108 104 91 80 74 68
285 283 279 274 268 263 255 251 249 247 245 244 249 245 207 167 167 160 140 141 198 207 160 142 142 150 151 140 147 164 188 194 156 127 115 115 122 132 131 127 113 103 93
282 279 277 271 266 262 257 246 244 241 238 238 241 235 195 163 162 164 154 149 185 181 146 146 147 152 154 152 160 176 192 176 132 123 126 139 154 156 150 147 141 134 123
278 275 269 263 259 253 251 252 234 228 219 208 194 174 127 128 141 151 152 157 225 189 165 155 154 160 161 160 166 173 179 151 129 129 140 153 154 144 138 148 159 148 143
273 271 266 259 253 248 242 238 230 206 196 191 179 162 150 145 146 152 156 159 192 196 184 159 157 162 163 163 166 167 162 145 136 140 149 148 137 133 140 154 146 129 126
278 272 263 253 244 239 237 232 215 198 186 185 178 168 157 157 153 150 144 139 181 207 197 162 161 164 164 162 164 161 149 140 143 147 147 142 140 144 150 152 139 133 129
289 276 263 250 237 229 226 219 207 198 188 174 153 146 154 147 139 147 153 176 189 197 196 165 163 162 159 156 156 147 139 142 150 143 141 145 149 149 155 151 124 125 147
302 280 267 257 233 220 211 196 184 179 174 169 163 152 148 148 152 160 182 200 199 199 197 170 159 153 151 150 142 139 141 147 149 145 141 151 155 153 144 132 135 161 176
322 300 249 256 237 195 167 166 166 166 166 159 154 152 157 159 161 170 182 197 201 206 195 164 145 147 143 139 141 147 146 148 153 151 146 160 159 147 144 147 162 179 151
335 334 300 314 93 115 134 147 155 156 156 150 138 145 160 157 159 171 183 192 205 212 183 153 149 147 144 148 149 149 150 155 163 154 150 163 152 152 158 163 173 166 151
342 359 21 54 92 121 140 131 140 149 145 145 143 150 165 161 161 171 180 189 198 199 175 159 156 153 149 149 149 153 157 159 159 153 153 158 159 163 166 165 164 162 170
343 358 14 35 67 113 128 141 151 151 146 146 144 151 162 159 162 172 180 185 189 192 177 170 169 154 146 146 151 160 156 152 151 151 157 163 167 170 166 157 173 188 175
337 343 342 351 14 72 115 130 133 136 140 144 145 152 160 159 163 171 177 185 189 189 181 174 161 146 147 155 157 145 136 139 147 151 157 169 175 175 175 174 187 200 194
338 339 341 10 89 106 124 135 137 143 147 150 151 156 160 160 163 169 176 184 187 179 176 172 157 146 150 154 134 124 126 128 129 137 162 180 185 187 188 196 200 205 208